Overview Statistics Trail Chart Weather Telemetry Raw packets
 

This is the latest recevied weather packets stored in our database for station/object W1MDM-10. If no packets are shown the sender has not sent any weather packets the latest 10 day(s).

<< 53 54 55 56 57 58 59 >>
Time Temp. Humidity Pressure Rain* Wind** Luminosity Snow
1787970044 22.22° C 96% 1016.1 hPa 25.65 mm - - -
1787969744 22.22° C 96% 1016.1 hPa 25.4 mm - - -
1787969444 22.22° C 95% 1016.4 hPa 25.4 mm - - -
1787969144 22.22° C 95% 1016.7 hPa 24.89 mm - - -
1787968844 22.22° C 95% 1017 hPa 24.13 mm - - -
1787968544 22.22° C 95% 1017.1 hPa 23.37 mm - - -
1787968244 22.22° C 95% 1017.4 hPa 20.07 mm - - -
1787967944 22.22° C 93% 1017.5 hPa 12.45 mm - - -
1787967644 22.22° C 93% 1017.3 hPa 8.64 mm - - -
1787967344 22.78° C 90% 1016.6 hPa 7.11 mm - - -
1787967044 23.89° C 82% 1016 hPa 2.54 mm - - -
1787966744 25.56° C 74% 1015.9 hPa 0 mm - - -
1787966444 27.22° C 67% 1015.6 hPa 0 mm - - -
1787966144 28.89° C 63% 1015.2 hPa 0 mm - - -
1787965844 30.56° C 62% 1014.9 hPa 0 mm - - -
1787965544 31.67° C 61% 1014.6 hPa 0 mm - - -
1787965244 32.22° C 58% 1014.4 hPa 0 mm - - -
1787964944 32.22° C 58% 1014.3 hPa 0 mm - - -
1787964644 32.78° C 57% 1014.1 hPa 0 mm - - -
1787964344 33.33° C 56% 1014.1 hPa 0 mm - - -
1787964044 33.33° C 55% 1013.9 hPa 0 mm - - -
1787963744 33.33° C 54% 1013.7 hPa 0 mm - - -
1787963444 33.33° C 54% 1013.5 hPa 0 mm - - -
1787963144 33.89° C 53% 1013.4 hPa 0 mm - - -
1787962844 33.89° C 53% 1013.5 hPa 0 mm - - -

* Rain latest hour (hover to see other rain measurements)
** Current wind speed in m/s (hover to see current wind gust speed)